CAPE
2763 2788 2658 2300 2127 2194 2056 1967 2045 2037 1925 1877 1898 1744 1826 1742 1586 1483 1164 1087 600 409 198 174 95 234 60 44 321 110 20 54 29 0 0 30 0 11 30 36 58 85
2874 2821 2741 2412 2304 2031 2272 1897 1972 1925 1830 1730 1877 1706 1815 1695 1592 1355 1080 1088 236 107 132 30 19 128 53 14 35 40 120 12 190 34 18 49 0 0 6 2 15 72
2960 2885 2747 2577 2422 2150 2389 1964 1914 1952 1799 1781 1815 1676 1776 1586 1571 1312 1184 999 183 102 169 10 76 145 33 57 19 29 77 30 22 24 62 47 37 5 161 153 202 141
2935 2923 2767 2644 2470 2293 2400 2161 1888 2018 1781 1861 1753 1799 1408 1574 1488 1368 1129 809 569 170 129 68 126 121 62 64 17 56 43 4 37 19 214 159 90 1 34 100 155 72
2913 2898 2778 2668 2448 2401 2367 2234 1963 1980 1871 1908 1758 1815 1465 1416 1412 1262 1089 718 346 276 152 200 167 135 110 123 10 7 75 10 30 48 59 210 345 127 130 129 106 135
2932 2898 2800 2691 2478 2404 2344 2217 2036 1956 1889 1992 1877 1702 1595 1277 1045 1146 978 562 307 339 208 246 171 141 111 148 178 53 46 30 15 60 50 17 306 190 290 90 63 41
2908 2914 2839 2703 2506 2447 2276 2152 2140 1993 1852 1913 1922 1679 1567 1444 1089 809 635 447 374 332 237 257 200 151 110 75 144 320 76 69 31 130 111 58 230 340 213 136 71 67
2906 2875 2891 2716 2534 2442 2276 2070 2158 2007 1847 1784 1793 1701 1530 1419 1249 902 648 546 476 270 205 221 226 180 136 100 78 84 180 183 108 148 69 36 19 6 19 43 282 252
2812 2863 2870 2780 2574 2440 2376 2166 2087 1998 1849 1700 1602 1496 1439 1366 1191 930 722 597 486 314 211 209 338 262 174 160 119 66 99 186 159 235 117 14 52 36 35 43 70 164
2744 2780 2845 2801 2628 2474 2427 2313 2122 2001 1857 1679 1535 1438 1344 1259 1120 900 786 661 495 381 337 292 276 278 217 199 172 155 90 114 106 146 239 183 127 171 365 409 234 130
2747 2721 2765 2805 2659 2528 2469 2371 2213 2055 1906 1751 1602 1497 1400 1284 1084 967 876 725 563 413 323 291 303 194 177 221 238 241 162 124 102 84 123 145 100 58 228 123 202 296
2790 2720 2731 2773 2690 2548 2498 2374 2230 2081 1941 1805 1637 1522 1433 1312 1283 1113 982 858 691 562 471 329 360 262 189 168 250 278 229 173 138 133 148 155 148 122 174 168 145 126
2803 2714 2699 2746 2740 2583 2461 2369 2188 2045 1931 1837 1689 1526 1406 1293 1361 1226 1065 959 805 671 532 380 426 408 286 158 175 229 245 202 185 168 193 290 328 310 315 331 357 411
2868 2730 2667 2691 2729 2660 2485 2360 2206 1982 1899 1823 1721 1579 1444 1433 1531 1400 1199 1030 888 747 610 480 446 502 349 217 242 280 276 134 119 127 127 164 290 391 405 408 399 354
2912 2839 2734 2712 2721 2682 2528 2362 2212 2023 1867 1781 1682 1598 1454 1538 1754 1645 1382 1204 1060 894 712 584 457 571 473 287 305 249 41 32 7 31 56 93 184 289 294 220 306 316
2863 2874 2790 2772 2772 2714 2600 2436 2261 2051 1857 1749 1653 1588 1684 1773 2032 1913 1665 1455 1268 1085 886 702 580 648 669 400 345 289 193 177 0 0 9 42 143 327 346 308 275 272
2765 2816 2790 2777 2791 2790 2725 2569 2408 2217 1993 1757 1596 1600 1702 1859 2201 2181 2026 1814 1571 1328 1108 881 670 726 703 621 315 475 286 0 0 0 16 47 157 317 355 335 322 293
2734 2820 2824 2773 2778 2829 2812 2732 2582 2423 2241 2001 1851 1876 1800 1906 2202 2261 2179 2029 1844 1602 1334 1046 669 480 638 519 526 380 0 61 141 96 86 119 283 339 336 312 422 424
2717 2791 2869 2845 2825 2826 2835 2820 2732 2592 2415 2196 2244 2176 2036 2018 2162 2191 2150 2022 1850 1664 1464 1207 974 836 674 616 477 332 108 6 1 57 190 280 374 392 366 366 454 428
2740 2794 2862 2932 2928 2883 2835 2815 2776 2696 2577 2426 2352 2464 2336 2226 2156 2158 2151 2071 1959 1846 1703 1369 1320 1256 1213 1181 856 320 311 0 2 61 141 340 431 507 524 558 545 446
2772 2852 2901 3018 3079 3048 2933 2817 2770 2726 2654 2546 2393 2522 2566 2514 2466 2409 2322 2186 1937 1826 1827 1718 1651 1636 1479 1237 1041 936 356 398 47 165 232 456 535 582 614 675 652 598
2713 2906 3016 3172 3283 3260 3160 2992 2801 2682 2724 2748 2639 2577 2523 2462 2424 2332 2250 2143 2033 1892 1887 1952 1896 1844 1758 1640 1636 1505 1184 732 299 178 393 592 656 636 657 676 698 668
2558 2959 3207 3398 3486 3477 3406 3313 3190 2944 2929 2887 2792 2727 2687 2634 2555 2397 2319 2252 2187 2244 2177 2124 2032 2022 2059 1936 1826 1674 1541 939 527 534 418 738 804 747 717 680 651 604
2470 3027 3376 3580 3670 3689 3654 3584 3469 3314 3133 2985 2882 2804 2734 2666 2525 2404 2437 2181 2202 2316 2364 2374 2337 2234 2150 1931 1643 1656 1514 1311 962 787 644 549 791 739 681 653 767 1175
2837 3264 3540 3709 3826 3861 3836 3754 3649 3544 3400 3242 3096 2963 2873 2783 2719 2940 2964 2596 2408 2499 2502 2372 2304 2088 1842 1839 1676 1514 1349 1155 1106 922 711 502 742 723 684 669 851 1304
3360 3604 3767 3863 3922 3966 3907 3853 3761 3694 3599 3497 3401 3297 3209 3118 3090 3274 3084 2696 2561 2521 2520 2294 2064 1920 1737 1648 1402 1192 1092 887 797 722 617 542 666 670 639 615 649 694
Wind_Speed
21 20 20 18 17 17 19 20 19 18 16 13 12 12 14 15 16 17 19 20 23 26 26 26 nan 24 nan nan 24 24 nan nan nan nan nan nan nan nan nan nan nan nan
22 22 20 18 16 16 18 19 17 15 12 11 10 11 11 14 16 19 19 21 23 25 26 nan nan 25 nan nan nan nan 27 nan 29 nan nan nan nan nan nan nan nan nan
23 22 21 19 18 17 18 15 12 9 8 9 10 9 9 14 18 20 20 21 22 24 25 nan nan 25 nan nan nan nan nan nan nan nan nan nan nan nan 30 29 28 27
23 22 20 18 17 17 15 9 5 4 6 9 11 10 10 14 18 21 20 21 20 21 22 nan 23 24 nan nan nan nan nan nan nan nan 30 30 nan nan nan 31 31 nan
22 20 18 16 14 13 8 4 4 6 9 12 13 12 12 15 16 18 19 19 19 20 21 22 23 24 26 28 nan nan nan nan nan nan nan 31 31 33 33 33 33 34
18 17 15 14 12 8 3 3 5 8 11 13 14 12 12 16 16 17 18 20 19 21 22 23 24 24 26 27 28 nan nan nan nan nan nan nan 31 33 33 nan nan nan
16 14 15 13 9 3 1 4 7 10 11 12 12 13 14 17 18 18 20 21 22 21 23 23 25 26 26 nan 26 27 nan nan nan 30 31 nan 32 33 34 35 nan nan
15 13 13 9 5 3 4 6 8 10 12 13 15 15 16 18 19 20 20 22 21 21 22 24 26 29 30 29 nan nan 28 28 30 32 nan nan nan nan nan nan 36 36
13 12 10 8 5 4 7 8 9 11 13 15 16 15 16 18 19 20 20 20 19 20 24 27 29 31 33 34 34 nan nan 30 31 32 33 nan nan nan nan nan nan 36
13 11 10 8 5 5 8 9 10 11 13 15 15 15 17 16 18 18 18 19 20 22 26 28 31 32 35 37 38 37 nan 34 34 34 35 36 37 36 36 36 37 37
12 9 10 9 6 5 8 10 11 12 12 14 14 15 16 16 16 17 18 21 23 26 28 30 32 34 36 37 38 37 38 38 37 nan 37 37 38 nan 38 37 36 37
9 8 9 9 7 4 7 9 11 11 12 12 14 16 16 17 18 18 20 24 26 28 29 30 31 33 36 38 39 39 39 39 39 39 39 39 39 40 40 38 36 35
7 7 7 7 6 3 4 7 9 11 13 15 16 18 20 21 20 21 22 26 28 28 29 30 31 33 36 39 41 42 43 42 41 41 41 41 41 42 42 41 39 37
6 5 5 6 5 2 2 5 8 12 15 17 18 21 24 26 27 27 26 28 30 30 29 30 32 34 36 40 44 46 45 45 44 44 44 43 41 41 41 41 40 37
4 2 3 3 3 3 3 5 9 12 15 18 21 23 24 27 28 29 30 31 32 32 33 33 35 37 38 42 45 45 nan nan nan nan nan nan 42 40 37 36 36 36
2 1 1 1 2 4 2 5 10 13 16 19 22 24 25 26 27 29 31 33 35 35 35 35 35 36 41 48 47 46 45 45 nan nan nan nan 42 39 36 34 34 34
3 2 3 2 1 3 3 7 11 14 17 19 22 24 26 27 28 30 32 33 36 37 38 38 38 38 45 47 49 50 46 nan nan nan nan nan 41 39 36 35 33 33
4 3 4 4 4 4 6 9 12 15 17 19 22 25 26 28 29 31 33 35 36 39 40 41 41 43 48 49 51 50 nan nan 45 nan nan 41 39 36 34 33 32 30
5 5 5 7 6 7 10 12 14 15 18 21 24 26 28 31 31 32 32 34 38 41 41 42 41 45 48 51 53 51 42 nan nan nan 43 40 36 34 32 31 30 29
7 7 8 9 10 12 14 15 16 17 20 23 26 29 31 32 34 35 32 35 40 43 43 43 43 46 50 53 59 61 49 nan nan nan 40 38 35 34 32 31 31 30
8 8 8 11 13 15 17 17 18 19 23 26 30 32 35 36 38 37 35 38 44 46 45 46 46 52 53 56 61 61 56 47 nan 39 38 37 36 35 34 34 33 33
10 10 11 13 16 17 18 18 20 23 26 30 33 34 37 40 38 38 40 42 47 50 49 48 48 56 55 58 62 59 54 44 41 39 38 38 38 37 36 36 37 36
13 13 15 16 17 19 19 20 23 26 29 32 36 36 38 39 40 42 44 47 51 52 51 48 46 50 51 53 57 58 52 44 42 40 38 39 40 39 38 38 38 38
17 17 18 19 20 20 21 23 26 29 31 34 38 38 39 41 43 46 48 50 52 50 47 45 42 44 49 51 56 57 53 47 43 41 38 39 40 39 39 39 39 42
22 21 21 22 21 22 24 28 30 31 33 35 37 38 40 42 44 47 49 50 50 47 47 45 41 42 49 54 55 54 51 45 43 40 39 39 40 39 38 39 37 38
27 25 24 23 23 25 28 31 31 33 35 37 38 39 41 43 46 48 50 49 47 46 45 44 43 43 48 54 55 54 52 47 43 41 39 39 39 40 39 36 36 37
Wind_Direction
291 290 297 304 314 313 320 324 327 334 341 339 336 332 334 340 343 345 345 343 348 349 353 360 nan 359 nan nan 2 1 nan nan nan nan nan nan nan nan nan nan nan nan
293 295 295 303 311 314 318 328 334 341 345 339 331 330 342 350 353 347 340 341 349 352 356 nan nan 359 nan nan nan nan 4 nan 2 nan nan nan nan nan nan nan nan nan
292 296 303 312 318 321 324 335 342 343 337 333 323 325 342 358 352 348 340 341 347 352 355 nan nan 360 nan nan nan nan nan nan nan nan nan nan nan nan 350 344 338 334
296 300 308 316 320 323 328 344 351 319 318 319 328 326 327 339 341 346 343 343 343 347 350 nan 357 358 nan nan nan nan nan nan nan nan 354 354 nan nan nan 342 339 nan
303 308 312 318 326 328 334 358 350 323 332 329 330 329 324 329 334 345 345 345 343 344 347 349 351 354 353 352 nan nan nan nan nan nan nan 350 349 345 344 339 338 339
318 320 325 333 341 342 348 2 350 343 341 336 341 334 331 336 340 343 347 349 349 345 345 346 345 346 347 347 350 nan nan nan nan nan nan nan 346 343 339 nan nan nan
340 338 350 355 1 23 31 1 354 347 346 334 328 337 334 342 345 346 349 353 354 349 346 346 347 346 345 nan 345 348 nan nan nan 351 351 nan 344 343 340 339 nan nan
357 357 7 15 34 64 33 360 346 341 337 325 335 337 339 343 344 348 353 355 355 353 350 350 351 351 348 345 nan nan 345 347 347 348 nan nan nan nan nan nan 337 337
8 18 32 49 54 49 22 356 343 338 336 338 339 340 342 341 344 349 353 352 349 348 350 353 353 351 350 346 344 nan nan 343 342 341 344 nan nan nan nan nan nan 334
24 41 63 78 58 33 13 357 348 345 342 346 345 343 345 344 345 346 346 345 343 346 351 352 351 348 346 344 342 341 nan 342 341 337 337 339 340 339 337 334 335 333
36 64 84 82 58 27 8 357 355 355 355 357 351 354 353 347 347 342 343 345 348 351 351 349 346 343 342 340 338 337 338 339 341 nan 336 336 335 nan 335 333 331 330
47 81 82 74 64 34 360 355 359 8 9 5 0 358 355 356 349 347 346 348 350 350 347 343 340 340 341 340 337 335 335 336 338 338 337 336 334 334 333 331 328 328
62 86 83 79 79 50 352 352 5 9 6 4 358 355 351 351 351 350 348 347 349 349 346 341 340 340 340 339 338 336 336 336 336 337 336 334 334 333 332 329 326 323
88 96 86 87 93 81 29 11 3 358 357 352 348 351 349 347 348 350 347 344 346 347 344 340 339 339 338 338 337 335 333 335 335 335 335 334 332 331 328 325 322 320
125 128 110 99 90 96 65 8 356 349 342 340 342 346 345 346 346 346 344 343 343 342 340 338 339 340 338 336 334 330 nan nan nan nan nan nan 331 329 327 323 319 319
171 231 262 276 108 114 75 339 337 334 331 335 339 341 340 340 342 343 341 341 340 339 337 336 337 337 340 340 334 330 330 329 nan nan nan nan 327 327 327 324 320 319
218 261 272 292 223 187 246 317 325 323 326 327 330 333 336 335 334 337 338 337 336 334 333 333 335 335 338 337 334 331 327 nan nan nan nan nan 325 326 326 324 320 319
228 252 275 282 258 254 285 306 309 313 317 317 317 323 326 325 329 334 333 331 330 329 330 331 333 335 334 332 330 326 nan nan 325 nan nan 327 326 325 323 320 320 318
243 246 257 261 262 265 277 289 301 308 310 310 314 313 309 318 325 324 326 327 328 326 326 328 328 329 329 327 322 319 323 nan nan nan 327 329 327 325 323 322 319 316
252 250 251 257 257 263 272 284 295 305 309 306 299 299 306 311 315 316 314 319 323 322 322 323 322 318 326 325 319 320 327 nan nan nan 329 330 328 325 323 323 321 320
256 254 257 255 258 264 270 281 292 294 298 299 300 303 306 309 313 317 312 310 314 316 317 317 316 318 323 321 316 320 333 334 nan 329 330 328 325 324 323 322 321 320
260 256 257 257 260 264 272 281 287 291 296 294 294 299 306 312 318 314 309 309 312 316 317 319 316 319 319 315 315 322 331 330 328 326 325 323 322 323 323 321 320 321
254 254 255 259 261 266 275 283 286 289 290 292 295 303 307 309 312 315 312 314 317 318 320 321 318 318 316 316 319 324 327 328 326 323 320 318 319 320 322 322 323 322
251 253 258 262 265 272 278 281 283 283 289 294 300 304 308 312 314 314 315 316 317 321 322 321 316 321 322 322 324 328 328 325 322 321 320 318 319 321 322 322 323 328
254 255 260 266 272 276 279 281 284 289 293 297 301 305 308 311 314 313 313 313 315 315 316 314 313 319 325 324 326 327 323 318 318 318 320 320 320 321 320 320 320 323
257 259 261 269 274 274 276 280 283 289 295 298 301 304 307 308 309 311 314 315 312 309 310 311 312 315 321 325 326 322 321 315 314 316 320 322 322 321 320 319 317 315